METEOR 2-5 DEB, 36923

Orbit data source: Space-Track

METEOR 2-5 DEB, 36923 is space debris in LEO originally from a launch on Wed, 31 Oct 1979 UTC launched from the Plesetsk Missile And Space Complex (PKMTR). Debris objects in space refer to the collection of defunct objects orbiting the Earth. Examples of debris include non-operational satellites, rocket bodies, and fragments generated from explosions, collisions, or faulty payload assembly.

Loading next visibility...
Identifier
36923, 1979-095BQ
Orbit
LEO
Country
Flag of CISCIS
Related business
Manufacturer
Unknown
Mission
Spacecraft
Bus & Motor
Unknown
Mass
Unknown
Launch date (UTC)
1979-10-31 (46 years ago)
Launch vehicle
Unknown
Launch site
Plesetsk Missile And Space Complex (PKMTR)
Object type
Payload
Rocket body
Debris
Shape & HBR
Unknown shape, 0.1 m
Radar Cross Section
Small (<0.1 m²)

Expand to show TLE details & history
Last TLE update: 1 month ago

TLE from 1 month ago
0 METEOR 2-5 DEB
1 36923U 79095BQ  25263.00891702  .00006486  00000-0  17366-2 0  9997
2 36923  81.1921   1.8171 0012000 235.5563 124.4496 14.48131141 75850
Epoch: 2025-09-20T00:12Z
TLE epoch observation values (Epoch: 2025-09-20T00:12:50.430Z)
Latitude
0.00004°
Longitude
-0.54099°
Altitude
739.543 km
Speed
7.483 km/s
True Right ascension
00h 07m 16s
True Declination
0° 00' 00"
Sunlit
Object was in full shadow at epoch
Visualization orbit readout
Latitude
Unknown
Longitude
Unknown
Altitude
Unknown
Speed
Unknown
Apparent Right ascension
Unknown
Apparent Declination
Unknown
Sunlit
N/A
Visualization observer readout
Local Sidereal Time
17:47:03
Azimuth
Unknown
Elevation
Unknown
Doppler factor
Unknown
Orbital elements
Apogee altitude
737.413 km
Perigee altitude
720.356 km
Semi-major axis
7,107.022 km
Eccentricity
0.0012
Inclination
81.1921°
RAAN
1.8171°
Arg. of periapsis
235.5563°
True anomaly
124.5629°
Mean anomaly
124.4496°
Eccentric anomaly
124.50626°
Mean motion
3.62253 °/min
Orbital period
99.38 mins
BSTAR
0.0017366
Loading maneuver chart data...
Computing Atmospheric mass density...
Loading historical data...
Loading historical data...
Loading historical data...
Loading historical data...
Loading historical data...
Loading historical data...
Loading historical data...

Documentation

Showing up to 5 results
|